TAM8072 SBGR-LIMC

Flight info

Callsign TAM8072
Flight time N/A
Altitude 33000
Route VUMEV UZ14 AMBET UN857 NEURA/N0492F350 UN857 GUNET N857 DEREV/N0476F360 N857 LZR N871 KORAL UG5 SONSO DCT ADUBI N871 VJF N851 MGA/N0471F380 M985 BCN N870 DIBER DCT STP Y15 PIGOS DCT NOSTA DCT ASTIG
Aircraft B77W/H-SDE1E2E3FGHIJ2J3J4J5M1RWXY/LB1D1

Departure

Time N/A
Airport São Paulo/Guarulhos–Governor André Franco Montoro International Airport (SBGR)

Arrival

Time 2026-05-05 19:03
Airport Milan Malpensa International Airport (LIMC)
Time Latitude Longitude Altitude Speed Heading
2026-05-05 17:26 38.23803 -2.51820 32938 ft 528 kts 42°
2026-05-05 17:26 38.28870 -2.45025 32943 ft 529 kts 43°
2026-05-05 17:27 38.33943 -2.38208 32935 ft 530 kts 42°
2026-05-05 17:27 38.38814 -2.31089 32963 ft 533 kts 48°
2026-05-05 17:28 38.43335 -2.23641 32958 ft 533 kts 49°
2026-05-05 17:28 38.47887 -2.16159 32925 ft 534 kts 48°
2026-05-05 17:29 38.52472 -2.08697 32924 ft 534 kts 48°
2026-05-05 17:29 38.57051 -2.01234 32924 ft 534 kts 48°
2026-05-05 17:30 38.61511 -1.93947 32920 ft 534 kts 48°
2026-05-05 17:30 38.66084 -1.86455 32944 ft 535 kts 48°
2026-05-05 17:31 38.70641 -1.78975 32931 ft 536 kts 48°
2026-05-05 17:31 38.75225 -1.71431 32928 ft 537 kts 49°
2026-05-05 17:32 38.79803 -1.63874 32929 ft 537 kts 49°
2026-05-05 17:32 38.84387 -1.56287 32925 ft 537 kts 49°
2026-05-05 17:33 38.88950 -1.48719 32966 ft 536 kts 49°
2026-05-05 17:33 38.93519 -1.41121 32923 ft 537 kts 49°
2026-05-05 17:34 38.98083 -1.33514 32913 ft 537 kts 49°
2026-05-05 17:34 39.02602 -1.25967 32916 ft 537 kts 49°
2026-05-05 17:35 39.07160 -1.18354 32906 ft 537 kts 49°
2026-05-05 17:35 39.11713 -1.10743 32902 ft 536 kts 50°
2026-05-05 17:36 39.16269 -1.03102 32903 ft 538 kts 49°
2026-05-05 17:36 39.20704 -0.95645 32897 ft 539 kts 49°
2026-05-05 17:37 39.25263 -0.87960 32893 ft 540 kts 49°
2026-05-05 17:37 39.29831 -0.80242 32893 ft 540 kts 49°
2026-05-05 17:38 39.34387 -0.72520 32852 ft 539 kts 50°
2026-05-05 17:38 39.38931 -0.64796 32866 ft 540 kts 50°
2026-05-05 17:39 39.43453 -0.57094 32865 ft 540 kts 50°
2026-05-05 17:39 39.47994 -0.49356 32863 ft 539 kts 49°
2026-05-05 17:40 39.52967 -0.42139 32864 ft 535 kts 42°
2026-05-05 17:40 39.58144 -0.35195 32923 ft 535 kts 42°
2026-05-05 17:41 39.63269 -0.28257 32892 ft 535 kts 43°
2026-05-05 17:41 39.68386 -0.21233 32887 ft 535 kts 43°
2026-05-05 17:42 39.73483 -0.14204 32887 ft 534 kts 43°
2026-05-05 17:42 39.78575 -0.07174 32899 ft 533 kts 43°
2026-05-05 17:43 39.83633 -0.00182 32886 ft 534 kts 43°
2026-05-05 17:43 39.88565 0.06665 32902 ft 533 kts 43°
2026-05-05 17:44 39.93635 0.13730 32905 ft 533 kts 43°
2026-05-05 17:44 39.98691 0.20788 32910 ft 533 kts 43°
2026-05-05 17:45 40.03750 0.27858 32969 ft 534 kts 43°
2026-05-05 17:45 40.08830 0.34953 32930 ft 536 kts 43°
2026-05-05 17:46 40.13916 0.42076 32914 ft 537 kts 44°
2026-05-05 17:46 40.18982 0.49192 32921 ft 538 kts 44°
2026-05-05 17:47 40.23232 0.55175 32924 ft 539 kts 44°
2026-05-05 17:47 40.28340 0.62381 32959 ft 542 kts 44°
2026-05-05 17:48 40.33477 0.69647 32921 ft 543 kts 44°
2026-05-05 17:48 40.38614 0.76935 32876 ft 543 kts 44°
2026-05-05 17:49 40.43741 0.84225 32917 ft 543 kts 45°
2026-05-05 17:49 40.48832 0.91482 32934 ft 544 kts 45°
2026-05-05 17:50 40.53967 0.98817 32914 ft 545 kts 45°
2026-05-05 17:50 40.58957 1.05973 32909 ft 545 kts 45°
2026-05-05 17:51 40.64071 1.13338 32906 ft 544 kts 45°
2026-05-05 17:51 40.69181 1.20712 32921 ft 544 kts 45°
2026-05-05 17:52 40.74263 1.28053 32911 ft 545 kts 45°
2026-05-05 17:52 40.79380 1.35451 32911 ft 545 kts 45°
2026-05-05 17:53 40.84497 1.42868 32906 ft 546 kts 45°
2026-05-05 17:53 40.89579 1.50260 32906 ft 546 kts 46°
2026-05-05 17:54 40.94681 1.57715 32898 ft 548 kts 46°
2026-05-05 17:54 40.99792 1.65204 32902 ft 548 kts 46°
2026-05-05 17:55 41.04902 1.72704 32902 ft 549 kts 46°
2026-05-05 17:55 41.10028 1.80238 32900 ft 549 kts 46°
2026-05-05 17:56 41.15125 1.87741 32910 ft 550 kts 46°
2026-05-05 17:56 41.20242 1.95296 32903 ft 549 kts 46°
2026-05-05 17:57 41.25199 2.02632 32917 ft 550 kts 46°
2026-05-05 17:57 41.30016 2.10477 32906 ft 551 kts 55°
2026-05-05 17:58 41.33824 2.19313 32941 ft 550 kts 67°
2026-05-05 17:58 41.36984 2.28581 32911 ft 548 kts 68°
2026-05-05 17:59 41.40114 2.37848 32909 ft 547 kts 67°
2026-05-05 17:59 41.43284 2.47082 32901 ft 547 kts 67°
2026-05-05 18:00 41.46448 2.56245 32900 ft 548 kts 67°
2026-05-05 18:00 41.49625 2.65479 32916 ft 548 kts 67°
2026-05-05 18:01 41.52799 2.74746 32896 ft 547 kts 67°
2026-05-05 18:01 41.55949 2.83982 32885 ft 545 kts 68°
2026-05-05 18:02 41.59074 2.93173 32881 ft 542 kts 68°
2026-05-05 18:02 41.62090 3.02073 32882 ft 540 kts 68°
2026-05-05 18:03 41.65162 3.11169 32885 ft 538 kts 68°
2026-05-05 18:03 41.68236 3.20296 32885 ft 538 kts 68°
2026-05-05 18:04 41.71298 3.29473 32888 ft 539 kts 68°
2026-05-05 18:04 41.74353 3.38662 32882 ft 541 kts 69°
2026-05-05 18:05 41.77399 3.47825 32904 ft 542 kts 69°
2026-05-05 18:05 41.80465 3.57070 32880 ft 543 kts 69°
2026-05-05 18:06 41.83519 3.66317 32884 ft 542 kts 69°
2026-05-05 18:06 41.86563 3.75570 32883 ft 542 kts 69°
2026-05-05 18:07 41.89593 3.84809 32872 ft 540 kts 69°
2026-05-05 18:07 41.92613 3.94044 32924 ft 540 kts 69°
2026-05-05 18:08 41.95540 4.03013 32881 ft 540 kts 69°
2026-05-05 18:08 41.98552 4.12262 32886 ft 540 kts 69°
2026-05-05 18:09 42.01549 4.21500 32855 ft 540 kts 70°
2026-05-05 18:09 42.04523 4.30700 32894 ft 540 kts 70°
2026-05-05 18:10 42.07611 4.39941 32885 ft 543 kts 65°
2026-05-05 18:10 42.11638 4.48583 32938 ft 546 kts 55°
2026-05-05 18:11 42.16167 4.56847 32890 ft 547 kts 54°
2026-05-05 18:11 42.20649 4.65039 32889 ft 546 kts 55°
2026-05-05 18:12 42.25108 4.73323 32893 ft 545 kts 55°
2026-05-05 18:12 42.29539 4.81637 32888 ft 545 kts 56°
2026-05-05 18:13 42.33961 4.89959 32885 ft 545 kts 56°
2026-05-05 18:13 42.38375 4.98282 32867 ft 544 kts 56°
2026-05-05 18:14 42.42658 5.06373 32890 ft 544 kts 56°
2026-05-05 18:14 42.47064 5.14720 32902 ft 544 kts 56°
2026-05-05 18:15 42.51466 5.23081 32921 ft 546 kts 56°
2026-05-05 18:15 42.55846 5.31427 32911 ft 546 kts 56°
2026-05-05 18:16 42.60249 5.39842 32895 ft 546 kts 56°
2026-05-05 18:16 42.64639 5.48251 32897 ft 545 kts 56°
2026-05-05 18:17 42.69024 5.56677 32903 ft 545 kts 56°
2026-05-05 18:17 42.73399 5.65105 32906 ft 545 kts 56°
2026-05-05 18:18 42.77734 5.73483 32868 ft 544 kts 56°
2026-05-05 18:18 42.82074 5.81891 32906 ft 542 kts 56°
2026-05-05 18:19 42.86410 5.90317 32910 ft 542 kts 56°
2026-05-05 18:19 42.90738 5.98750 32928 ft 542 kts 57°
2026-05-05 18:20 42.94944 6.06971 32934 ft 543 kts 57°
2026-05-05 18:20 42.99240 6.15390 32938 ft 541 kts 56°
2026-05-05 18:21 43.03530 6.23819 32937 ft 541 kts 57°
2026-05-05 18:21 43.07817 6.32268 32946 ft 541 kts 57°
2026-05-05 18:22 43.12113 6.40759 32936 ft 542 kts 57°
2026-05-05 18:22 43.16369 6.49196 32905 ft 542 kts 57°
2026-05-05 18:23 43.20649 6.57702 32934 ft 541 kts 57°
2026-05-05 18:23 43.24984 6.66140 32934 ft 542 kts 55°
2026-05-05 18:24 43.29457 6.74482 32931 ft 542 kts 54°
2026-05-05 18:24 43.33905 6.82846 32934 ft 542 kts 55°
2026-05-05 18:25 43.38323 6.91236 32933 ft 540 kts 55°
2026-05-05 18:25 43.42719 6.99560 32979 ft 540 kts 55°
2026-05-05 18:26 43.47021 7.07721 32942 ft 542 kts 55°
2026-05-05 18:26 43.51423 7.16162 32940 ft 542 kts 56°
2026-05-05 18:27 43.55784 7.24629 32942 ft 542 kts 56°
2026-05-05 18:27 43.60126 7.33063 32967 ft 542 kts 56°
2026-05-05 18:28 43.66688 7.45809 32940 ft 543 kts 56°
2026-05-05 18:28 43.71066 7.54315 32949 ft 543 kts 56°
2026-05-05 18:29 43.75440 7.62847 32935 ft 542 kts 56°
2026-05-05 18:29 43.79965 7.71148 32938 ft 540 kts 45°
2026-05-05 18:30 43.82793 7.74552 32950 ft 537 kts 33°
2026-05-05 18:30 43.85882 7.77273 32794 ft 529 kts 24°
2026-05-05 18:30 43.89227 7.79276 32281 ft 517 kts 13°
2026-05-05 18:30 43.92632 7.80827 31710 ft 513 kts 12°
2026-05-05 18:31 43.96036 7.82325 31084 ft 512 kts 12°
2026-05-05 18:31 43.99446 7.83828 30469 ft 512 kts 12°
2026-05-05 18:31 44.02821 7.85346 29813 ft 512 kts 13°
2026-05-05 18:31 44.06173 7.86886 29024 ft 512 kts 13°
2026-05-05 18:32 44.09540 7.88458 28324 ft 510 kts 14°
2026-05-05 18:32 44.12898 7.90043 27592 ft 508 kts 14°
2026-05-05 18:32 44.16241 7.91627 26918 ft 505 kts 15°
2026-05-05 18:32 44.19558 7.93202 26250 ft 502 kts 15°
2026-05-05 18:33 44.22860 7.94771 25580 ft 499 kts 15°
2026-05-05 18:33 44.26136 7.96327 24915 ft 496 kts 15°
2026-05-05 18:33 44.29386 7.97870 24304 ft 491 kts 16°
2026-05-05 18:33 44.32605 7.99397 23733 ft 487 kts 16°
2026-05-05 18:34 44.35605 8.00824 23136 ft 483 kts 16°
2026-05-05 18:34 44.37704 8.01823 22719 ft 479 kts 16°
2026-05-05 18:34 44.40843 8.03319 22114 ft 474 kts 16°
2026-05-05 18:34 44.43955 8.04805 21511 ft 469 kts 17°
2026-05-05 18:35 44.47037 8.06276 20908 ft 465 kts 17°
2026-05-05 18:35 44.50074 8.07726 20351 ft 460 kts 17°
2026-05-05 18:35 44.53100 8.09174 19763 ft 456 kts 17°
2026-05-05 18:35 44.56089 8.10605 19197 ft 452 kts 17°
2026-05-05 18:36 44.59054 8.12027 18671 ft 448 kts 17°
2026-05-05 18:36 44.61995 8.13438 18099 ft 444 kts 17°
2026-05-05 18:36 44.64871 8.14820 17500 ft 440 kts 17°
2026-05-05 18:36 44.67757 8.16208 16901 ft 436 kts 17°
2026-05-05 18:37 44.70616 8.17585 16322 ft 432 kts 17°
2026-05-05 18:37 44.73453 8.18952 15745 ft 428 kts 17°
2026-05-05 18:37 44.76256 8.20304 15191 ft 423 kts 17°
2026-05-05 18:37 44.79028 8.21646 14703 ft 418 kts 17°
2026-05-05 18:38 44.81763 8.22970 14208 ft 413 kts 17°
2026-05-05 18:38 44.84467 8.24279 13747 ft 408 kts 17°
2026-05-05 18:38 44.87100 8.25554 13218 ft 403 kts 17°
2026-05-05 18:38 44.89731 8.26830 12820 ft 395 kts 17°
2026-05-05 18:39 44.92306 8.28079 12424 ft 388 kts 17°
2026-05-05 18:39 44.94835 8.29269 12026 ft 374 kts 13°
2026-05-05 18:39 44.97370 8.29616 11622 ft 363 kts 353°
2026-05-05 18:39 44.99800 8.28873 11248 ft 353 kts 336°
2026-05-05 18:40 45.02023 8.27514 10906 ft 347 kts 333°
2026-05-05 18:40 45.04216 8.26131 10549 ft 343 kts 333°
2026-05-05 18:40 45.06218 8.24492 10339 ft 324 kts 316°
2026-05-05 18:40 45.07655 8.22146 10224 ft 309 kts 299°
2026-05-05 18:41 45.08620 8.19541 10094 ft 296 kts 291°
2026-05-05 18:41 45.09297 8.16852 10020 ft 283 kts 280°
2026-05-05 18:41 45.09416 8.14087 9980 ft 283 kts 264°
2026-05-05 18:41 45.09289 8.11313 9965 ft 282 kts 264°
2026-05-05 18:42 45.09171 8.08561 9952 ft 279 kts 264°
2026-05-05 18:42 45.09057 8.05824 9957 ft 278 kts 265°
2026-05-05 18:42 45.08717 8.03171 9958 ft 275 kts 247°
2026-05-05 18:42 45.07806 8.00774 9967 ft 280 kts 234°
2026-05-05 18:43 45.06576 7.98674 9968 ft 281 kts 225°
2026-05-05 18:43 45.05075 7.96922 9965 ft 280 kts 213°
2026-05-05 18:43 45.03336 7.95712 9960 ft 279 kts 199°
2026-05-05 18:43 45.01425 7.95202 9952 ft 280 kts 183°
2026-05-05 18:44 44.99490 7.95459 9949 ft 281 kts 168°
2026-05-05 18:44 44.97663 7.96440 9955 ft 282 kts 153°
2026-05-05 18:44 44.96074 7.98052 9957 ft 285 kts 139°
2026-05-05 18:44 44.94807 8.00224 9961 ft 289 kts 122°
2026-05-05 18:45 44.94167 8.02912 9963 ft 292 kts 100°
2026-05-05 18:45 44.93999 8.05793 9958 ft 296 kts 95°
2026-05-05 18:45 44.93930 8.08706 9961 ft 298 kts 94°
2026-05-05 18:45 44.93876 8.11638 9963 ft 300 kts 93°
2026-05-05 18:46 44.93825 8.14599 9959 ft 302 kts 93°
2026-05-05 18:46 44.93776 8.17538 9967 ft 303 kts 93°
2026-05-05 18:46 44.93736 8.20514 9956 ft 301 kts 91°
2026-05-05 18:46 44.93975 8.23442 9960 ft 302 kts 80°
2026-05-05 18:47 44.94464 8.26330 9957 ft 303 kts 77°
2026-05-05 18:47 44.94999 8.29197 9950 ft 301 kts 77°
2026-05-05 18:47 44.95525 8.32053 9949 ft 300 kts 77°
2026-05-05 18:47 44.96035 8.34903 9949 ft 299 kts 77°
2026-05-05 18:48 44.96531 8.37744 9946 ft 298 kts 78°
2026-05-05 18:48 44.97019 8.40591 9939 ft 297 kts 78°
2026-05-05 18:48 44.97503 8.43448 9646 ft 299 kts 78°
2026-05-05 18:48 44.97986 8.46317 9227 ft 301 kts 78°
2026-05-05 18:49 44.98462 8.49149 8876 ft 300 kts 78°
2026-05-05 18:49 44.98943 8.52012 8529 ft 298 kts 78°
2026-05-05 18:49 44.99419 8.54854 8204 ft 297 kts 78°
2026-05-05 18:49 44.99891 8.57682 7894 ft 294 kts 78°
2026-05-05 18:50 45.00340 8.60497 7560 ft 293 kts 80°
2026-05-05 18:50 45.00722 8.63233 7198 ft 275 kts 81°
2026-05-05 18:50 45.01076 8.65864 6897 ft 271 kts 81°
2026-05-05 18:50 45.01428 8.68479 6590 ft 271 kts 81°
2026-05-05 18:51 45.01782 8.71093 6282 ft 270 kts 81°
2026-05-05 18:51 45.02139 8.73710 5960 ft 270 kts 81°
2026-05-05 18:51 45.02495 8.76311 5636 ft 269 kts 81°
2026-05-05 18:51 45.02850 8.78903 5383 ft 265 kts 81°
2026-05-05 18:52 45.03190 8.81387 5276 ft 257 kts 81°
2026-05-05 18:52 45.03524 8.83823 5136 ft 248 kts 82°
2026-05-05 18:52 45.04049 8.86086 4927 ft 242 kts 58°
2026-05-05 18:52 45.05298 8.87637 4642 ft 240 kts 24°
2026-05-05 18:53 45.06906 8.88115 4450 ft 238 kts 357°
2026-05-05 18:53 45.08584 8.87814 4486 ft 256 kts 348°
2026-05-05 18:53 45.10489 8.87273 4578 ft 298 kts 347°
2026-05-05 18:53 45.12486 8.86699 4532 ft 279 kts 347°
2026-05-05 18:54 45.14291 8.86187 4464 ft 251 kts 348°
2026-05-05 18:54 45.15934 8.85731 4407 ft 234 kts 348°
2026-05-05 18:54 45.17531 8.85293 4424 ft 232 kts 348°
2026-05-05 18:54 45.19117 8.84859 4427 ft 232 kts 348°
2026-05-05 18:55 45.20707 8.84474 4428 ft 231 kts 354°
2026-05-05 18:55 45.22312 8.84265 4425 ft 232 kts 354°
2026-05-05 18:55 45.23926 8.83977 4400 ft 234 kts 351°
2026-05-05 18:55 45.25518 8.83609 4378 ft 235 kts 349°
2026-05-05 18:56 45.27121 8.83196 4327 ft 232 kts 349°
2026-05-05 18:56 45.28696 8.82775 4268 ft 228 kts 348°
2026-05-05 18:56 45.30248 8.82354 4226 ft 226 kts 348°
2026-05-05 18:56 45.31799 8.81929 4185 ft 228 kts 348°
2026-05-05 18:57 45.33362 8.81502 4133 ft 228 kts 349°
2026-05-05 18:57 45.34884 8.81086 4062 ft 218 kts 348°
2026-05-05 18:57 45.36330 8.80690 4005 ft 207 kts 349°
2026-05-05 18:57 45.37763 8.80298 3983 ft 210 kts 348°
2026-05-05 18:58 45.39187 8.79907 3883 ft 211 kts 349°
2026-05-05 18:58 45.40624 8.79514 3740 ft 208 kts 349°
2026-05-05 18:58 45.42035 8.79126 3629 ft 204 kts 349°
2026-05-05 18:58 45.43403 8.78751 3485 ft 197 kts 349°
2026-05-05 18:59 45.44750 8.78381 3390 ft 194 kts 349°
2026-05-05 18:59 45.46070 8.78019 3289 ft 192 kts 350°
2026-05-05 18:59 45.47383 8.77658 3197 ft 192 kts 350°
2026-05-05 18:59 45.48689 8.77299 3149 ft 188 kts 350°
2026-05-05 19:00 45.49948 8.76952 3049 ft 181 kts 350°
2026-05-05 19:00 45.51185 8.76613 2812 ft 181 kts 350°
2026-05-05 19:00 45.52408 8.76276 2573 ft 175 kts 350°
2026-05-05 19:00 45.53548 8.75961 2339 ft 163 kts 351°
2026-05-05 19:01 45.54626 8.75664 2167 ft 153 kts 351°
2026-05-05 19:01 45.55653 8.75382 1936 ft 147 kts 351°
2026-05-05 19:01 45.56662 8.75104 1762 ft 149 kts 351°
2026-05-05 19:01 45.57666 8.74827 1542 ft 147 kts 350°
2026-05-05 19:02 45.58658 8.74554 1330 ft 143 kts 349°
2026-05-05 19:02 45.59626 8.74282 1119 ft 140 kts 349°
2026-05-05 19:02 45.60586 8.74022 932 ft 142 kts 346°
2026-05-05 19:02 45.61550 8.73758 773 ft 142 kts 347°
2026-05-05 19:03 45.62481 8.73500 732 ft 125 kts 348°
2026-05-05 19:03 45.63238 8.73292 740 ft 94 kts 349°
2026-05-05 19:03 45.63635 8.73149 750 ft 42 kts 332°
2026-05-05 19:03 45.63802 8.72942 753 ft 22 kts 301°
2026-05-05 19:04 45.63866 8.72814 754 ft 13 kts 304°
2026-05-05 19:04 45.63906 8.72729 755 ft 3 kts 303°
2026-05-05 19:04 45.63914 8.72712 757 ft 0 kts 303°
2026-05-05 19:05 45.63922 8.72627 755 ft 12 kts 249°
2026-05-05 19:05 45.63837 8.72597 756 ft 21 kts 171°
2026-05-05 19:06 45.63671 8.72642 753 ft 25 kts 169°
2026-05-05 19:06 45.63505 8.72690 751 ft 21 kts 169°
2026-05-05 19:06 45.63416 8.72657 748 ft 9 kts 247°
2026-05-05 19:06 45.63388 8.72470 748 ft 22 kts 259°
2026-05-05 19:07 45.63358 8.72252 750 ft 22 kts 258°
2026-05-05 19:07 45.63335 8.72090 750 ft 14 kts 258°
2026-05-05 19:07 45.63327 8.72032 751 ft 0 kts 258°
2026-05-05 19:08 45.63311 8.71972 749 ft 7 kts 223°
2026-05-05 19:08 45.63254 8.71976 749 ft 11 kts 170°
2026-05-05 19:08 45.63111 8.72015 748 ft 21 kts 169°
2026-05-05 19:08 45.63003 8.71993 743 ft 11 kts 242°
2026-05-05 19:09 45.62977 8.71838 744 ft 19 kts 258°
2026-05-05 19:09 45.62964 8.71675 744 ft 9 kts 294°
2026-05-05 19:09 45.63013 8.71626 743 ft 11 kts 329°
2026-05-05 19:09 45.63040 8.71605 744 ft 0 kts 330°